Back to catalog

STARLINK-3138

AliveCommunicationsVLEO
NORAD 49430·PAYLOAD·🇺🇸 United States

Launched Nov 13, 2021 from Cape Canaveral Space Force Station

Loading…

Next Passes (next 24 hours)

TLE

FreshSource: CelesTrak SupGP

Epoch: Sep 14, 2026, 13:36 UTC

1 49430C 21104Y   26257.56715278  .00008718  00000+0  25760-3 0  2574
2 49430  53.1573  89.0982 0001060  88.2072 312.7992 15.34382725    10

Track STARLINK-3138 in real time with AllMySat

Download on the App Store